EW1179 Weather Reports


Display with metric or nautical units.
time (UTC)temp
F
wind
direction
speed
MPH
gust
MPH
rain 1hr
in
rain 24hr
in
rain mn
in
humidity
%
barometer
mb
20260902023044 59 98 0.0 1.0 0.00 0.00 0.00 76 1013.2
20260902021546 60 103 0.0 0.0 0.00 0.00 0.00 75 1013.2
20260902020037 61 91 0.0 0.0 0.00 0.00 0.00 73 1013.1
20260902014537 61 18 0.0 6.0 0.00 0.00 0.00 72 1013.2
20260902013035 62 326 0.0 0.0 0.00 0.00 0.00 70 1013.3
20260902011534 62 346 0.0 4.0 0.00 0.00 0.00 69 1013.1
20260902010034 63 198 0.0 6.0 0.00 0.00 0.00 67 1013.1
20260902004534 63 260 1.0 4.0 0.00 0.00 0.00 65 1013.2
20260902003033 64 288 1.0 9.0 0.00 0.00 0.00 63 1013.1
20260902001532 64 263 0.0 11.0 0.00 0.00 0.00 62 1012.9
20260902000032 65 220 0.0 6.0 0.00 0.00 0.00 61 1012.9
20260901234531 66 245 1.0 8.0 0.00 0.00 0.00 58 1013.0
20260901233030 67 250 1.0 7.0 0.00 0.00 0.00 56 1013.0
20260901231531 68 209 2.0 10.0 0.00 0.00 0.00 54 1013.1
20260901230035 70 229 3.0 7.0 0.00 0.00 0.00 49 1013.1
20260901224530 71 162 0.0 7.0 0.00 0.00 0.00 47 1013.1
20260901223029 71 112 2.0 7.0 0.00 0.00 0.00 48 1013.2
20260901221533 71 253 1.0 5.0 0.00 0.00 0.00 48 1013.4
20260901220052 71 225 3.0 8.0 0.00 0.00 0.00 47 1013.6
20260901214526 72 260 1.0 5.0 0.00 0.00 0.00 47 1013.6
20260901213057 71 219 1.0 5.0 0.00 0.00 0.00 50 1013.6
20260901211526 70 226 4.0 9.0 0.00 0.00 0.00 50 1013.7
20260901210026 71 167 1.0 9.0 0.00 0.00 0.00 48 1013.9
20260901204534 71 211 3.0 6.0 0.00 0.00 0.00 48 1013.9
20260901203044 71 196 3.0 15.0 0.00 0.00 0.00 48 1013.9
20260901201523 72 239 2.0 8.0 0.00 0.00 0.00 48 1013.8
20260901200029 73 243 2.0 7.0 0.00 0.00 0.00 47 1013.8
20260901194519 73 217 1.0 7.0 0.00 0.00 0.00 49 1014.0
20260901193018 73 222 0.0 5.0 0.00 0.00 0.00 49 1014.0
20260901191515 73 84 1.0 5.0 0.00 0.00 0.00 49 1014.1
20260901190012 72 179 0.0 4.0 0.00 0.00 0.00 50 1014.2
20260901184519 72 233 0.0 5.0 0.00 0.00 0.00 51 1014.2
20260901183004 70 277 0.0 1.0 0.00 0.00 0.00 54 1014.3
20260901181501 70 302 0.0 1.0 0.00 0.00 0.00 55 1014.4
20260901180058 69 268 0.0 2.0 0.00 0.00 0.00 56 1014.5
20260901174555 68 227 0.0 5.0 0.00 0.00 0.00 56 1014.6
20260901173059 67 173 0.0 4.0 0.00 0.00 0.00 58 1014.5
20260901171548 66 219 1.0 6.0 0.00 0.00 0.00 59 1014.4
20260901170052 65 214 0.0 4.0 0.00 0.00 0.00 62 1014.2
20260901164539 64 109 0.0 3.0 0.00 0.00 0.00 65 1014.3
20260901163034 63 215 0.0 5.0 0.00 0.00 0.00 68 1014.3
20260901161535 62 94 0.0 3.0 0.00 0.00 0.00 70 1014.3
20260901160031 62 138 0.0 2.0 0.00 0.00 0.00 71 1014.4
20260901154525 61 75 0.0 1.0 0.00 0.00 0.00 75 1014.3
20260901153027 59 118 0.0 0.0 0.00 0.00 0.00 79 1014.3
20260901151516 58 121 0.0 0.0 0.00 0.00 0.00 83 1014.3
20260901150012 56 61 0.0 0.0 0.00 0.00 0.00 86 1014.2
20260901144508 54 340 0.0 0.0 0.00 0.00 0.00 86 1014.1
20260901143003 54 340 0.0 0.0 0.00 0.00 0.00 85 1014.0
20260901141604 53 342 0.0 0.0 0.00 0.00 0.00 85 1013.9
20260901140104 54 342 0.0 0.0 0.00 0.00 0.00 84 1013.7
20260901134608 54 342 0.0 0.0 0.00 0.00 0.00 84 1013.6
20260901133054 55 341 0.0 0.0 0.00 0.00 0.00 84 1013.6
20260901131551 55 177 0.0 0.0 0.00 0.00 0.00 84 1013.5
20260901130048 55 211 0.0 0.0 0.00 0.00 0.00 84 1013.4
20260901124547 55 250 0.0 0.0 0.00 0.00 0.00 84 1013.4
20260901123045 55 157 0.0 0.0 0.00 0.00 0.00 84 1013.3
20260901121545 55 210 0.0 0.0 0.00 0.00 0.00 83 1013.3
20260901120052 55 210 0.0 0.0 0.00 0.00 0.00 82 1013.1
20260901114541 55 210 0.0 0.0 0.00 0.00 0.00 81 1012.9
20260901113046 56 17 0.0 0.0 0.00 0.00 0.00 82 1013.1
20260901111546 56 25 0.0 0.0 0.00 0.00 0.00 83 1013.1
20260901110045 56 222 0.0 0.0 0.00 0.00 0.00 83 1012.9
20260901104537 56 234 0.0 0.0 0.00 0.00 0.00 84 1012.9
20260901103038 56 202 0.0 0.0 0.00 0.00 0.00 85 1012.8
20260901101537 56 201 0.0 0.0 0.00 0.00 0.00 85 1012.8
20260901100036 56 296 0.0 4.0 0.00 0.00 0.00 86 1012.8
20260901094539 56 71 0.0 0.0 0.00 0.00 0.00 87 1013.0
20260901093034 56 241 0.0 2.0 0.00 0.00 0.00 87 1012.9
20260901091534 56 241 0.0 5.0 0.00 0.00 0.00 87 1012.8
20260901090034 55 222 0.0 2.0 0.00 0.00 0.00 86 1012.9
20260901084533 56 234 0.0 0.0 0.00 0.00 0.00 86 1012.9
20260901083033 56 235 0.0 0.0 0.00 0.00 0.00 86 1012.9
20260901081530 56 244 0.0 6.0 0.00 0.00 0.00 86 1012.7
20260901080031 56 236 0.0 2.0 0.00 0.00 0.00 86 1012.7
20260901074531 56 221 0.0 0.0 0.00 0.00 0.00 86 1012.6
20260901073027 56 261 0.0 0.0 0.00 0.00 0.00 86 1012.7
20260901071525 56 298 0.0 0.0 0.00 0.00 0.00 86 1012.8
20260901070019 55 243 0.0 0.0 0.00 0.00 0.00 86 1012.8
20260901064512 55 243 0.0 0.0 0.00 0.00 0.00 86 1012.6
20260901063008 55 205 0.0 0.0 0.00 0.00 0.00 86 1012.8
20260901061507 54 40 0.0 0.0 0.00 0.00 0.00 85 1012.7
20260901060006 54 40 0.0 0.0 0.00 0.00 0.00 84 1012.7
20260901054511 55 40 0.0 0.0 0.00 0.00 0.00 84 1012.6
20260901053005 55 40 0.0 0.0 0.00 0.00 0.00 84 1012.6
20260901051504 56 215 0.0 0.0 0.00 0.00 0.00 84 1012.3
20260901050004 56 215 0.0 0.0 0.00 0.00 0.00 84 1012.6
20260901044505 56 215 0.0 0.0 0.00 0.00 0.00 84 1012.5
20260901043005 56 109 0.0 0.0 0.00 0.00 0.00 84 1012.2
20260901041503 56 233 0.0 0.0 0.00 0.00 0.00 83 1012.2
20260901040002 56 259 0.0 3.0 0.00 0.00 0.00 83 1012.1
20260901034501 56 227 0.0 2.0 0.00 0.00 0.00 82 1012.0
20260901033003 57 232 0.0 5.0 0.00 0.00 0.00 82 1011.6
20260901031501 57 264 0.0 5.0 0.00 0.00 0.00 80 1011.2
20260901030100 57 232 0.0 4.0 0.00 0.00 0.00 79 1010.9
20260901024600 58 238 0.0 5.0 0.00 0.00 0.00 77 1010.7